Simultaneous Nadir Overpasses (SNOs) Predictions

Prediction of SNOs between AQUA and METOP-A Satellite Orbit:

Table of predicted SNOs for the next 14.0 days since TLE Epoch: 6/28/2012
Index Date (AQUA) Time (AQUA) AQUA Lat,Lon Date (METOP-A) Time (METOP-A) METOP-A Lat,Lon Distance(km) Time Diff (sec)
1 06/29/2012 15:24:38 -73.26, 124.29 06/29/2012 15:23:30 -73.25, 122.09 70.52 68
2 06/29/2012 16:14:16 73.80, -69.22 06/29/2012 16:13:58 73.80, -69.29 2.22 18
3 06/29/2012 17:03:43 -73.88, 98.26 06/29/2012 17:04:39 -73.87, 98.19 2.08 56
4 07/02/2012 10:58:58 -73.41,-169.60 07/02/2012 10:57:49 -73.35,-171.25 53.02 69
5 07/02/2012 11:48:33 73.80, -2.79 07/02/2012 11:48:19 73.81, -2.86 2.38 14
6 07/02/2012 12:38:00 -73.87, 164.69 07/02/2012 12:39:00 -73.88, 164.63 2.06 60
7 07/05/2012 06:33:18 -73.58,-103.52 07/05/2012 06:32:07 -73.51,-104.49 31.29 71
8 07/05/2012 07:22:50 73.81, 63.60 07/05/2012 07:22:40 73.81, 63.56 1.27 10
9 07/05/2012 08:12:17 -73.88,-128.91 07/05/2012 08:13:21 -73.88,-128.95 1.22 64
10 07/08/2012 02:07:37 -73.76, -37.48 07/08/2012 02:06:23 -73.71, -37.60 6.17 74
11 07/08/2012 02:57:06 73.84, 129.97 07/08/2012 02:57:00 73.82, 129.98 2.65 6
12 07/08/2012 03:46:33 -73.91, -62.53 07/08/2012 03:47:41 -73.89, -62.52 2.07 68
13 07/10/2012 21:41:53 -73.74, 28.98 07/10/2012 21:40:43 -73.76, 28.93 2.68 70
14 07/10/2012 22:31:22 73.83,-163.58 07/10/2012 22:31:21 73.82,-163.60 1.42 1




NCC Satellite Simultaneous Nadir Overpasses (SNOs) Prediction Service
